| time (UTC) | temp F | wind direction | speed MPH | gust MPH | rain 1hr in | rain 24hr in | rain mn in | humidity % | barometer mb |
| 20260502161644 | 68 | 9 | 2.0 | 2.0 | 0.00 | 0.00 | 0.00 | 63 | 1024.7 |
| 20260502161141 | 68 | 9 | 2.0 | 3.0 | 0.00 | 0.00 | 0.00 | 66 | 1024.3 |
| 20260502160639 | 68 | 311 | 1.0 | 3.0 | 0.00 | 0.00 | 0.00 | 66 | 1024.3 |
| 20260502160137 | 68 | 273 | 1.0 | 2.0 | 0.00 | 0.00 | 0.00 | 68 | 1024.1 |
| 20260502152051 | 64 | 262 | 3.0 | 5.0 | 0.00 | 0.00 | 0.00 | 75 | 1024.0 |
| 20260502151548 | 64 | 26 | 0.0 | 5.0 | 0.00 | 0.00 | 0.00 | 76 | 1024.2 |
| 20260502151046 | 63 | 25 | 1.0 | 3.0 | 0.00 | 0.00 | 0.00 | 78 | 1024.2 |
| 20260502150543 | 63 | 9 | 2.0 | 3.0 | 0.00 | 0.00 | 0.00 | 78 | 1024.2 |
| 20260502130428 | 54 | 47 | 0.0 | 1.0 | 0.00 | 0.00 | 0.00 | 96 | 1022.8 |
| 20260502123410 | 52 | 318 | 0.0 | 1.0 | 0.00 | 0.00 | 0.00 | 97 | 1022.6 |
| 20260502122908 | 52 | 296 | 0.0 | 1.0 | 0.00 | 0.00 | 0.00 | 97 | 1022.4 |
| 20260502122404 | 52 | 330 | 0.0 | 0.0 | 0.00 | 0.00 | 0.00 | 97 | 1022.3 |
| 20260502121902 | 52 | 335 | 0.0 | 0.0 | 0.00 | 0.00 | 0.00 | 97 | 1022.1 |
| 20260502121359 | 52 | 338 | 0.0 | 1.0 | 0.00 | 0.00 | 0.00 | 97 | 1022.2 |
| 20260502120857 | 52 | 27 | 1.0 | 1.0 | 0.00 | 0.00 | 0.00 | 97 | 1022.1 |
| 20260502120353 | 52 | 333 | 0.0 | 1.0 | 0.00 | 0.00 | 0.00 | 97 | 1022.2 |
| 20260502115850 | 52 | 322 | 0.0 | 1.0 | 0.00 | 0.00 | 0.00 | 97 | 1022.0 |
| 20260502115347 | 52 | 314 | 0.0 | 1.0 | 0.00 | 0.00 | 0.00 | 97 | 1021.9 |
| 20260502114837 | 52 | 344 | 0.0 | 0.0 | 0.00 | 0.00 | 0.00 | 97 | 1022.0 |
| 20260502114334 | 52 | 258 | 0.0 | 0.0 | 0.00 | 0.00 | 0.00 | 97 | 1021.8 |
| 20260502113832 | 52 | 330 | 0.0 | 0.0 | 0.00 | 0.00 | 0.00 | 97 | 1021.9 |
| 20260502113329 | 52 | 318 | 1.0 | 1.0 | 0.00 | 0.00 | 0.00 | 97 | 1021.7 |
| 20260502112827 | 52 | 318 | 0.0 | 0.0 | 0.00 | 0.00 | 0.00 | 97 | 1021.7 |
| 20260502112324 | 52 | 318 | 0.0 | 0.0 | 0.00 | 0.00 | 0.00 | 97 | 1021.7 |
| 20260502111822 | 52 | 323 | 0.0 | 0.0 | 0.00 | 0.00 | 0.00 | 97 | 1021.7 |
| 20260502111319 | 52 | 343 | 0.0 | 1.0 | 0.00 | 0.00 | 0.00 | 97 | 1021.8 |
| 20260502110817 | 52 | 327 | 0.0 | 1.0 | 0.00 | 0.00 | 0.00 | 97 | 1021.8 |
| 20260502110315 | 52 | 309 | 1.0 | 2.0 | 0.00 | 0.00 | 0.00 | 97 | 1021.7 |
| 20260502105812 | 52 | 326 | 0.0 | 1.0 | 0.00 | 0.00 | 0.00 | 97 | 1021.5 |
| 20260502105308 | 52 | 230 | 0.0 | 1.0 | 0.00 | 0.00 | 0.00 | 97 | 1021.5 |
| 20260502104806 | 52 | 354 | 1.0 | 2.0 | 0.00 | 0.00 | 0.00 | 97 | 1021.5 |
| 20260502104303 | 52 | 348 | 0.0 | 1.0 | 0.00 | 0.00 | 0.00 | 97 | 1021.4 |
| 20260502103801 | 52 | 320 | 0.0 | 1.0 | 0.00 | 0.00 | 0.00 | 97 | 1021.3 |
| 20260502103258 | 52 | 300 | 0.0 | 1.0 | 0.00 | 0.00 | 0.00 | 97 | 1021.3 |
| 20260502102755 | 52 | 310 | 0.0 | 0.0 | 0.00 | 0.00 | 0.00 | 97 | 1021.3 |
| 20260502102251 | 52 | 321 | 0.0 | 0.0 | 0.00 | 0.00 | 0.00 | 97 | 1021.2 |
| 20260502101750 | 52 | 337 | 0.0 | 0.0 | 0.00 | 0.00 | 0.00 | 97 | 1021.0 |
| 20260502101247 | 52 | 317 | 2.0 | 2.0 | 0.00 | 0.00 | 0.00 | 97 | 1021.1 |
| 20260502100745 | 52 | 335 | 0.0 | 0.0 | 0.00 | 0.00 | 0.00 | 97 | 1021.0 |
| 20260502100244 | 52 | 321 | 0.0 | 0.0 | 0.00 | 0.00 | 0.00 | 97 | 1020.8 |
| 20260502091218 | 53 | 313 | 0.0 | 0.0 | 0.00 | 0.00 | 0.00 | 97 | 1019.9 |
| 20260502090715 | 53 | 245 | 0.0 | 0.0 | 0.00 | 0.00 | 0.00 | 97 | 1019.9 |
| 20260502090212 | 53 | 325 | 0.0 | 1.0 | 0.00 | 0.00 | 0.00 | 97 | 1019.7 |
| 20260502071107 | 54 | 358 | 0.0 | 2.0 | 0.00 | 0.00 | 0.00 | 98 | 1019.9 |
| 20260502070605 | 54 | 343 | 0.0 | 1.0 | 0.00 | 0.00 | 0.00 | 99 | 1020.1 |
| 20260502065601 | 54 | 333 | 0.0 | 0.0 | 0.00 | 0.00 | 0.00 | 99 | 1019.6 |
| 20260502065058 | 54 | 100 | 1.0 | 1.0 | 0.00 | 0.00 | 0.00 | 99 | 1019.7 |
| 20260502064557 | 54 | 28 | 0.0 | 2.0 | 0.00 | 0.00 | 0.00 | 99 | 1019.8 |
| 20260502064054 | 54 | 3 | 1.0 | 1.0 | 0.00 | 0.00 | 0.00 | 99 | 1019.5 |
| 20260502063551 | 54 | 1 | 0.0 | 2.0 | 0.00 | 0.00 | 0.00 | 99 | 1019.6 |
| 20260502063049 | 54 | 50 | 0.0 | 2.0 | 0.00 | 0.00 | 0.00 | 99 | 1019.5 |
| 20260502062546 | 54 | 11 | 1.0 | 1.0 | 0.00 | 0.00 | 0.00 | 99 | 1019.5 |
| 20260502062044 | 54 | 19 | 1.0 | 3.0 | 0.00 | 0.00 | 0.00 | 99 | 1019.5 |
| 20260502061542 | 54 | 335 | 0.0 | 1.0 | 0.00 | 0.00 | 0.00 | 99 | 1019.6 |
| 20260502061039 | 54 | 32 | 0.0 | 1.0 | 0.00 | 0.00 | 0.00 | 99 | 1019.3 |
| 20260502060534 | 54 | 41 | 0.0 | 1.0 | 0.00 | 0.00 | 0.00 | 99 | 1019.4 |
| 20260502060031 | 54 | 359 | 0.0 | 5.0 | 0.00 | 0.00 | 0.00 | 99 | 1019.4 |
| 20260502055528 | 54 | 55 | 2.0 | 5.0 | 0.00 | 0.00 | 0.00 | 99 | 1019.6 |
| 20260502055027 | 54 | 39 | 0.0 | 1.0 | 0.00 | 0.00 | 0.00 | 99 | 1019.5 |
| 20260502054525 | 54 | 262 | 1.0 | 3.0 | 0.00 | 0.00 | 0.00 | 99 | 1019.6 |
| 20260502054022 | 54 | 342 | 0.0 | 1.0 | 0.00 | 0.00 | 0.00 | 99 | 1019.5 |
| 20260502053519 | 54 | 35 | 0.0 | 2.0 | 0.00 | 0.00 | 0.00 | 99 | 1019.4 |
| 20260502053017 | 55 | 339 | 0.0 | 2.0 | 0.00 | 0.00 | 0.00 | 99 | 1019.3 |
| 20260502052515 | 55 | 47 | 1.0 | 2.0 | 0.00 | 0.00 | 0.00 | 99 | 1019.3 |
| 20260502052013 | 55 | 49 | 0.0 | 1.0 | 0.00 | 0.00 | 0.00 | 99 | 1019.6 |
| 20260502051510 | 55 | 344 | 0.0 | 1.0 | 0.00 | 0.00 | 0.00 | 99 | 1019.4 |
| 20260502051008 | 55 | 7 | 0.0 | 1.0 | 0.00 | 0.00 | 0.00 | 99 | 1019.3 |
| 20260502050504 | 55 | 319 | 1.0 | 1.0 | 0.00 | 0.00 | 0.00 | 99 | 1019.5 |
| 20260502050001 | 55 | 50 | 0.0 | 1.0 | 0.00 | 4.69 | 4.69 | 99 | 1019.2 |
| 20260502045457 | 55 | 106 | 0.0 | 3.0 | 0.00 | 4.69 | 4.69 | 99 | 1019.4 |
| 20260502044955 | 55 | 356 | 2.0 | 2.0 | 0.00 | 4.69 | 4.69 | 99 | 1019.5 |
| 20260502044450 | 55 | 279 | 2.0 | 3.0 | 0.00 | 4.69 | 4.69 | 99 | 1019.4 |
| 20260502043948 | 55 | 224 | 0.0 | 1.0 | 0.00 | 4.69 | 4.69 | 99 | 1019.3 |
| 20260502043445 | 55 | 23 | 1.0 | 2.0 | 0.00 | 4.69 | 4.69 | 99 | 1019.1 |
| 20260502042944 | 55 | 293 | 0.0 | 2.0 | 0.00 | 4.69 | 4.69 | 99 | 1018.9 |
| 20260502042442 | 55 | 78 | 1.0 | 2.0 | 0.00 | 4.69 | 4.69 | 99 | 1019.2 |
| 20260502041939 | 55 | 350 | 0.0 | 2.0 | 0.00 | 4.69 | 4.69 | 99 | 1019.3 |
| 20260502041437 | 55 | 53 | 1.0 | 2.0 | 0.00 | 4.69 | 4.69 | 99 | 1019.0 |
| 20260502040933 | 55 | 44 | 1.0 | 2.0 | 0.00 | 4.69 | 4.69 | 99 | 1019.3 |
| 20260502040430 | 55 | 301 | 1.0 | 3.0 | 0.00 | 4.69 | 4.69 | 99 | 1019.5 |
| 20260502035926 | 55 | 81 | 0.0 | 2.0 | 0.00 | 4.69 | 4.69 | 99 | 1019.6 |
| 20260502035423 | 55 | 13 | 0.0 | 2.0 | 0.00 | 4.69 | 4.69 | 99 | 1019.3 |
| 20260502034921 | 55 | 290 | 1.0 | 2.0 | 0.00 | 4.69 | 4.69 | 99 | 1019.4 |
| 20260502034419 | 55 | 238 | 1.0 | 2.0 | 0.00 | 4.69 | 4.69 | 99 | 1019.2 |
| 20260502033917 | 55 | 171 | 1.0 | 2.0 | 0.00 | 4.69 | 4.69 | 99 | 1019.0 |
| 20260502033414 | 55 | 21 | 1.0 | 2.0 | 0.00 | 4.69 | 4.69 | 99 | 1019.0 |
| 20260502032911 | 55 | 339 | 0.0 | 2.0 | 0.00 | 4.69 | 4.69 | 99 | 1018.8 |
| 20260502032408 | 55 | 97 | 2.0 | 6.0 | 0.00 | 4.69 | 4.69 | 99 | 1019.1 |
| 20260502031905 | 55 | 258 | 3.0 | 3.0 | 0.00 | 4.69 | 4.69 | 99 | 1018.7 |
| 20260502031403 | 55 | 291 | 2.0 | 3.0 | 0.00 | 4.69 | 4.69 | 99 | 1018.6 |
| 20260502030901 | 55 | 225 | 2.0 | 3.0 | 0.00 | 4.69 | 4.69 | 99 | 1018.4 |
| 20260502030359 | 55 | 145 | 0.0 | 3.0 | 0.00 | 4.69 | 4.69 | 99 | 1018.4 |
| 20260502025856 | 56 | 343 | 0.0 | 2.0 | 0.00 | 4.69 | 4.69 | 99 | 1018.2 |
| 20260502025353 | 56 | 314 | 1.0 | 2.0 | 0.00 | 4.69 | 4.69 | 99 | 1017.8 |
| 20260502024851 | 56 | 359 | 2.0 | 2.0 | 0.07 | 4.69 | 4.69 | 99 | 1017.8 |
| 20260502024349 | 56 | 312 | 0.0 | 3.0 | 0.00 | 4.68 | 4.68 | 99 | 1017.6 |
| 20260502023847 | 56 | 319 | 1.0 | 2.0 | 0.07 | 4.68 | 4.68 | 99 | 1017.4 |
| 20260502023344 | 56 | 55 | 1.0 | 2.0 | 0.07 | 4.68 | 4.68 | 99 | 1017.7 |
| 20260502022841 | 56 | 21 | 1.0 | 2.0 | 0.12 | 4.67 | 4.67 | 99 | 1017.9 |
| 20260502022338 | 56 | 12 | 1.0 | 3.0 | 0.12 | 4.66 | 4.66 | 99 | 1018.1 |
| 20260502021835 | 56 | 278 | 1.0 | 2.0 | 0.12 | 4.65 | 4.65 | 99 | 1017.7 |
| 20260502021332 | 56 | 333 | 0.0 | 2.0 | 0.12 | 4.64 | 4.64 | 99 | 1017.6 |
| 20260502020829 | 56 | 221 | 1.0 | 2.0 | 0.12 | 4.63 | 4.63 | 99 | 1017.7 |
| 20260502020327 | 56 | 269 | 0.0 | 2.0 | 0.05 | 4.61 | 4.61 | 99 | 1017.5 |
| 20260502015824 | 56 | 103 | 1.0 | 2.0 | 0.07 | 4.60 | 4.60 | 99 | 1017.6 |
| 20260502015321 | 56 | 349 | 0.0 | 3.0 | 0.12 | 4.60 | 4.60 | 99 | 1017.7 |
| 20260502014818 | 56 | 58 | 1.0 | 1.0 | 0.05 | 4.59 | 4.59 | 99 | 1017.5 |
| 20260502014315 | 57 | 127 | 1.0 | 6.0 | 0.00 | 4.58 | 4.58 | 99 | 1017.6 |
| 20260502013811 | 57 | 24 | 0.0 | 6.0 | 0.12 | 4.58 | 4.58 | 99 | 1016.9 |
| 20260502013307 | 57 | 21 | 1.0 | 3.0 | 0.24 | 4.57 | 4.57 | 99 | 1016.9 |
| 20260502012803 | 57 | 312 | 0.0 | 3.0 | 0.31 | 4.56 | 4.56 | 99 | 1016.6 |
| 20260502012301 | 57 | 331 | 0.0 | 2.0 | 0.19 | 4.53 | 4.53 | 99 | 1016.8 |
| 20260502011758 | 57 | 31 | 1.0 | 3.0 | 0.19 | 4.51 | 4.51 | 99 | 1016.9 |
| 20260502011254 | 57 | 10 | 0.0 | 5.0 | 0.07 | 4.49 | 4.49 | 99 | 1016.8 |
| 20260502010752 | 58 | 30 | 0.0 | 5.0 | 0.05 | 4.48 | 4.48 | 99 | 1017.1 |
| 20260502010248 | 58 | 307 | 1.0 | 3.0 | 0.07 | 4.47 | 4.47 | 99 | 1017.2 |
| 20260502005745 | 58 | 309 | 1.0 | 3.0 | 0.12 | 4.47 | 4.47 | 99 | 1016.8 |
| 20260502005243 | 58 | 307 | 1.0 | 1.0 | 0.05 | 4.46 | 4.46 | 99 | 1016.1 |
| 20260502004740 | 58 | 36 | 0.0 | 1.0 | 0.07 | 4.45 | 4.45 | 99 | 1015.5 |
| 20260502004236 | 58 | 55 | 1.0 | 3.0 | 0.07 | 4.45 | 4.45 | 99 | 1015.0 |
| 20260502003734 | 58 | 30 | 1.0 | 2.0 | 0.00 | 4.44 | 4.44 | 99 | 1015.1 |
| 20260502003231 | 58 | 68 | 2.0 | 2.0 | 0.05 | 4.44 | 4.44 | 99 | 1015.8 |
| 20260502002726 | 58 | 359 | 0.0 | 2.0 | 0.00 | 4.43 | 4.43 | 99 | 1015.9 |
| 20260502002224 | 58 | 24 | 1.0 | 1.0 | 0.07 | 4.43 | 4.43 | 99 | 1016.2 |
| 20260502001721 | 59 | 286 | 1.0 | 2.0 | 0.19 | 4.43 | 4.43 | 99 | 1016.1 |
| 20260502001219 | 59 | 313 | 1.0 | 1.0 | 0.24 | 4.42 | 4.42 | 99 | 1015.7 |
| 20260502000716 | 58 | 337 | 0.0 | 1.0 | 0.17 | 4.39 | 4.39 | 99 | 1015.6 |
| 20260502000214 | 58 | 312 | 0.0 | 1.0 | 0.17 | 4.37 | 4.37 | 99 | 1016.2 |
| 20260501235710 | 58 | 290 | 0.0 | 1.0 | 0.05 | 4.35 | 4.35 | 99 | 1016.3 |
| 20260501235206 | 59 | 5 | 1.0 | 1.0 | 0.00 | 4.34 | 4.34 | 99 | 1016.4 |
| 20260501234702 | 59 | 356 | 0.0 | 1.0 | 0.00 | 4.34 | 4.34 | 99 | 1015.3 |
| 20260501234159 | 59 | 22 | 0.0 | 0.0 | 0.07 | 4.34 | 4.34 | 99 | 1015.4 |
| 20260501233657 | 59 | 32 | 1.0 | 2.0 | 0.07 | 4.34 | 4.34 | 99 | 1014.8 |
| 20260501233154 | 59 | 15 | 0.0 | 1.0 | 0.00 | 4.33 | 4.33 | 99 | 1014.9 |
| 20260501232650 | 59 | 16 | 0.0 | 1.0 | 0.12 | 4.33 | 4.33 | 99 | 1015.0 |
| 20260501232148 | 59 | 328 | 2.0 | 2.0 | 0.50 | 4.32 | 4.32 | 99 | 1014.2 |
| 20260501231645 | 59 | 45 | 1.0 | 2.0 | 0.73 | 4.30 | 4.30 | 99 | 1014.4 |
| 20260501231143 | 59 | 37 | 0.0 | 1.0 | 0.42 | 4.23 | 4.23 | 99 | 1015.3 |
| 20260501230641 | 59 | 72 | 1.0 | 1.0 | 0.31 | 4.18 | 4.18 | 99 | 1016.0 |
| 20260501230139 | 59 | 295 | 1.0 | 3.0 | 0.24 | 4.16 | 4.16 | 99 | 1015.8 |
| 20260501225636 | 59 | 74 | 2.0 | 2.0 | 0.05 | 4.13 | 4.13 | 99 | 1014.4 |
| 20260501225133 | 59 | 62 | 1.0 | 2.0 | 0.00 | 4.12 | 4.12 | 99 | 1014.9 |
| 20260501224630 | 59 | 168 | 2.0 | 5.0 | 0.00 | 4.12 | 4.12 | 99 | 1014.5 |
| 20260501224127 | 59 | 72 | 1.0 | 5.0 | 0.00 | 4.12 | 4.12 | 99 | 1013.5 |
| 20260501223623 | 59 | 51 | 3.0 | 3.0 | 0.00 | 4.12 | 4.12 | 99 | 1013.7 |
| 20260501223120 | 59 | 25 | 1.0 | 6.0 | 0.00 | 4.12 | 4.12 | 99 | 1013.9 |
| 20260501222616 | 60 | 125 | 1.0 | 2.0 | 0.00 | 4.12 | 4.12 | 99 | 1013.5 |
| 20260501222113 | 60 | 25 | 3.0 | 3.0 | 0.00 | 4.12 | 4.12 | 99 | 1013.8 |
| 20260501221610 | 60 | 89 | 3.0 | 5.0 | 0.00 | 4.12 | 4.12 | 99 | 1014.0 |
| 20260501221107 | 60 | 53 | 1.0 | 7.0 | 0.00 | 4.12 | 4.12 | 99 | 1014.4 |
| 20260501220605 | 60 | 359 | 0.0 | 1.0 | 0.00 | 4.12 | 4.12 | 99 | 1014.5 |
| 20260501215558 | 60 | 29 | 0.0 | 2.0 | 0.00 | 4.12 | 4.12 | 99 | 1014.6 |
| 20260501215053 | 60 | 3 | 0.0 | 2.0 | 0.00 | 4.12 | 4.12 | 99 | 1015.0 |
| 20260501214549 | 61 | 48 | 1.0 | 2.0 | 0.00 | 4.12 | 4.12 | 99 | 1015.3 |
| 20260501214044 | 60 | 342 | 0.0 | 1.0 | 0.07 | 4.12 | 4.12 | 99 | 1015.4 |
| 20260501213542 | 61 | 96 | 1.0 | 1.0 | 0.12 | 4.12 | 4.12 | 99 | 1014.8 |
| 20260501213038 | 61 | 335 | 1.0 | 2.0 | 0.00 | 4.10 | 4.10 | 99 | 1014.5 |
| 20260501212534 | 60 | 349 | 0.0 | 1.0 | 0.00 | 4.10 | 4.10 | 99 | 1014.8 |
| 20260501212031 | 61 | 10 | 0.0 | 0.0 | 0.07 | 4.10 | 4.10 | 99 | 1015.1 |
| 20260501211528 | 61 | 118 | 1.0 | 1.0 | 0.07 | 4.10 | 4.10 | 99 | 1014.3 |
| 20260501211026 | 61 | 82 | 1.0 | 3.0 | 0.00 | 4.09 | 4.09 | 99 | 1013.2 |
| 20260501210522 | 61 | 41 | 1.0 | 2.0 | 0.05 | 4.09 | 4.09 | 99 | 1013.0 |
| 20260501210019 | 61 | 26 | 1.0 | 1.0 | 0.12 | 4.09 | 4.09 | 99 | 1013.4 |
| 20260501205515 | 61 | 319 | 0.0 | 1.0 | 0.12 | 4.08 | 4.08 | 99 | 1014.1 |
| 20260501205014 | 61 | 2 | 0.0 | 2.0 | 0.19 | 4.07 | 4.07 | 99 | 1013.2 |
| 20260501204509 | 61 | 19 | 1.0 | 2.0 | 0.12 | 4.05 | 4.05 | 99 | 1013.9 |
| 20260501204005 | 61 | 315 | 0.0 | 1.0 | 0.12 | 4.04 | 4.04 | 99 | 1014.4 |
| 20260501203502 | 61 | 100 | 2.0 | 3.0 | 0.12 | 4.03 | 4.03 | 99 | 1013.6 |
| 20260501203000 | 61 | 352 | 1.0 | 3.0 | 0.17 | 4.02 | 4.02 | 99 | 1013.5 |
| 20260501202456 | 61 | 16 | 0.0 | 2.0 | 0.54 | 4.00 | 4.00 | 99 | 1013.7 |
| 20260501201952 | 61 | 73 | 0.0 | 2.0 | 0.47 | 3.98 | 3.98 | 99 | 1013.1 |
| 20260501201450 | 61 | 79 | 0.0 | 1.0 | 0.12 | 3.90 | 3.90 | 99 | 1013.6 |
| 20260501200947 | 61 | 16 | 0.0 | 2.0 | 0.17 | 3.89 | 3.89 | 99 | 1013.5 |
| 20260501200445 | 62 | 64 | 1.0 | 2.0 | 0.19 | 3.88 | 3.88 | 99 | 1013.5 |
| 20260501195941 | 62 | 3 | 0.0 | 1.0 | 0.00 | 3.85 | 3.85 | 99 | 1013.5 |
| 20260501195438 | 62 | 341 | 0.0 | 1.0 | 0.05 | 3.85 | 3.85 | 99 | 1013.1 |
| 20260501194933 | 62 | 18 | 1.0 | 2.0 | 0.24 | 3.84 | 3.84 | 99 | 1013.0 |
| 20260501194429 | 62 | 2 | 1.0 | 1.0 | 0.24 | 3.83 | 3.83 | 99 | 1013.1 |
| 20260501193925 | 62 | 27 | 1.0 | 1.0 | 0.00 | 3.79 | 3.79 | 99 | 1013.1 |
| 20260501193424 | 62 | 27 | 0.0 | 1.0 | 0.07 | 3.79 | 3.79 | 99 | 1013.2 |
| 20260501192921 | 62 | 342 | 0.0 | 1.0 | 0.31 | 3.79 | 3.79 | 99 | 1013.4 |
| 20260501192418 | 62 | 306 | 0.0 | 0.0 | 0.40 | 3.78 | 3.78 | 99 | 1012.9 |
| 20260501191915 | 62 | 141 | 0.0 | 2.0 | 0.17 | 3.74 | 3.74 | 99 | 1013.1 |
| 20260501191412 | 62 | 62 | 0.0 | 1.0 | 0.00 | 3.71 | 3.71 | 99 | 1013.0 |
| 20260501190909 | 62 | 46 | 1.0 | 1.0 | 0.07 | 3.71 | 3.71 | 99 | 1013.2 |
| 20260501190406 | 62 | 315 | 0.0 | 1.0 | 0.19 | 3.71 | 3.71 | 99 | 1013.7 |
| 20260501185900 | 61 | 315 | 1.0 | 2.0 | 0.31 | 3.70 | 3.70 | 99 | 1013.2 |
| 20260501185357 | 61 | 32 | 1.0 | 2.0 | 0.28 | 3.67 | 3.67 | 99 | 1013.2 |
| 20260501184853 | 61 | 53 | 0.0 | 2.0 | 0.24 | 3.64 | 3.64 | 99 | 1012.8 |
| 20260501184349 | 62 | 36 | 1.0 | 2.0 | 0.24 | 3.62 | 3.62 | 99 | 1013.5 |
| 20260501183844 | 62 | 20 | 0.0 | 1.0 | 0.12 | 3.59 | 3.59 | 99 | 1013.4 |
| 20260501183342 | 62 | 316 | 0.0 | 1.0 | 0.07 | 3.58 | 3.58 | 99 | 1013.3 |
| 20260501182838 | 62 | 15 | 0.0 | 3.0 | 0.19 | 3.57 | 3.57 | 99 | 1012.6 |
| 20260501182335 | 61 | 91 | 1.0 | 2.0 | 0.38 | 3.56 | 3.56 | 99 | 1011.9 |
| 20260501181832 | 62 | 78 | 3.0 | 5.0 | 0.24 | 3.53 | 3.53 | 99 | 1011.3 |
| 20260501181329 | 62 | 86 | 2.0 | 2.0 | 0.07 | 3.49 | 3.49 | 99 | 1011.4 |
| 20260501180826 | 62 | 62 | 1.0 | 2.0 | 0.12 | 3.49 | 3.49 | 99 | 1012.2 |
| 20260501180322 | 62 | 9 | 0.0 | 2.0 | 0.17 | 3.48 | 3.48 | 99 | 1012.7 |
| 20260501175820 | 62 | 342 | 0.0 | 2.0 | 0.12 | 3.46 | 3.46 | 99 | 1013.2 |
| 20260501175316 | 62 | 46 | 0.0 | 2.0 | 0.12 | 3.45 | 3.45 | 99 | 1013.5 |
| 20260501174813 | 62 | 56 | 0.0 | 2.0 | 0.12 | 3.44 | 3.44 | 99 | 1013.4 |
| 20260501174310 | 62 | 344 | 1.0 | 1.0 | 0.14 | 3.43 | 3.43 | 99 | 1013.6 |
| 20260501173809 | 62 | 41 | 0.0 | 0.0 | 0.12 | 3.42 | 3.42 | 99 | 1013.8 |
| 20260501173307 | 62 | 344 | 0.0 | 2.0 | 0.12 | 3.41 | 3.41 | 99 | 1014.2 |
| 20260501172801 | 62 | 31 | 0.0 | 1.0 | 0.07 | 3.40 | 3.40 | 99 | 1014.0 |
| 20260501172256 | 62 | 3 | 1.0 | 3.0 | 0.00 | 3.39 | 3.39 | 99 | 1013.8 |
| 20260501171752 | 62 | 26 | 1.0 | 1.0 | 0.00 | 3.39 | 3.39 | 99 | 1013.8 |
| 20260501171249 | 62 | 334 | 2.0 | 2.0 | 0.00 | 3.39 | 3.39 | 99 | 1014.2 |
| 20260501170746 | 62 | 143 | 1.0 | 2.0 | 0.00 | 3.39 | 3.39 | 99 | 1014.1 |
| 20260501170243 | 62 | 32 | 0.0 | 1.0 | 0.05 | 3.39 | 3.39 | 99 | 1014.4 |
| 20260501165740 | 61 | 333 | 0.0 | 2.0 | 0.05 | 3.39 | 3.39 | 99 | 1014.3 |
| 20260501165238 | 61 | 348 | 1.0 | 3.0 | 0.12 | 3.38 | 3.38 | 99 | 1014.4 |
| 20260501164736 | 62 | 258 | 0.0 | 5.0 | 0.24 | 3.37 | 3.37 | 99 | 1015.1 |
| 20260501164232 | 62 | 57 | 1.0 | 3.0 | 0.17 | 3.35 | 3.35 | 99 | 1014.9 |
| 20260501163728 | 62 | 296 | 1.0 | 3.0 | 0.17 | 3.33 | 3.33 | 99 | 1015.3 |
| 20260501163226 | 62 | 25 | 1.0 | 2.0 | 0.24 | 3.31 | 3.31 | 99 | 1015.8 |
| 20260501162721 | 62 | 34 | 1.0 | 3.0 | 0.24 | 3.29 | 3.29 | 99 | 1015.5 |
| 20260501162218 | 62 | 1 | 0.0 | 2.0 | 0.19 | 3.27 | 3.27 | 99 | 1016.2 |